Wainwright, AK

9:13 AM AKST on February 19, 2017 (GMT -0900)
Wainwright

Weather History for PAWI - February, 2013

Change the Weather History Date:

Wednesday, February 13, 2013

  Actual Average (PABR) Record (PABR)
Temperature  
Mean Temperature -16 °F -  
Max Temperature -8 °F -10 °F 30 °F (1959)
Min Temperature -22 °F -20 °F -44 °F (1964)
Degree Days  
Heating Degree Days 80    
Moisture  
Dew Point -18 °F    
Average Humidity 74    
Maximum Humidity 77    
Minimum Humidity 70    
Precipitation  
Precipitation 0.00 in - - ()
Sea Level Pressure  
Sea Level Pressure 29.96 in    
Wind  
Wind Speed 14 mph (NE)    
Max Wind Speed 23 mph    
Max Gust Speed 24 mph    
Visibility 3 miles    
Events Snow    
Averages and records for this station are not official NWS values.
T = Trace of Precipitation, MM = Missing Value Source: NWS Daily Summary

Daily Weather History Graph

Daily Weather History Graph

Search for Another Location

Airport or City:

Trip Planner

Search our weather history database for the weather conditions in past years. The results will help you decide how hot, cold, wet, or windy it might be!

Date:

Astronomy

Feb. 13, 2013 Rise Set
Actual Time 10:26 AM AKST 5:23 PM AKST
Civil Twilight 9:13 AM AKST 6:36 PM AKST
Nautical Twilight 7:58 AM AKST 7:51 PM AKST
Astronomical Twilight 6:46 AM AKST 9:04 PM AKST
Moon 9:14 AM AKST (2/13) No Moon Set
Length of Visible Light 9h 23m
Length of Day
6h 56m
Waxing Crescent, 15% of the Moon is Illuminated
Feb 13
Waxing Crescent
Feb 17
First Quarter
Feb 25
Full
Mar 4
Last Quarter
Mar 11
New

Hourly Weather History & Observations

Time (AKST) Temp. Windchill Dew Point Humidity Pressure Visibility Wind Dir Wind Speed Gust Speed Precip Events Conditions
12:53 AM -22.0 °F -43.6 °F -27.9 °F 74% 29.92 in 9.0 mi NE 10.4 mph - N/A   Clear
1:53 AM -20.9 °F -41.0 °F -27.0 °F 73% 29.92 in 9.0 mi NE 9.2 mph - N/A   Clear
3:21 AM -18.4 °F -37.9 °F -23.8 °F 76% 29.93 in 2.5 mi NE 9.2 mph - N/A   Haze
3:41 AM -16.6 °F -36.8 °F -23.8 °F 70% 29.93 in 3.0 mi NE 10.4 mph - N/A   Haze
3:48 AM -18.4 °F -36.6 °F -23.8 °F 76% 29.93 in 2.5 mi NE 8.1 mph - N/A   Haze
3:53 AM -18.0 °F -36.1 °F -24.0 °F 74% 29.94 in 2.5 mi ENE 8.1 mph - N/A   Overcast
4:09 AM -18.4 °F -39.1 °F -23.8 °F 76% 29.94 in 2.5 mi NE 10.4 mph - N/A   Overcast
4:18 AM -16.6 °F -35.7 °F -23.8 °F 70% 29.94 in 3.0 mi NE 9.2 mph - N/A   Overcast
4:53 AM -15.0 °F -36.8 °F -22.0 °F 71% 29.94 in 4.0 mi NE 12.7 mph - N/A   Haze
5:53 AM -13.0 °F -36.0 °F -18.9 °F 75% 29.94 in 4.0 mi ENE 15.0 mph - N/A   Haze
6:16 AM -13.0 °F -37.5 °F -18.4 °F 77% 29.93 in 2.0 mi ENE 17.3 mph - N/A Snow Light Snow
6:48 AM -11.2 °F -36.4 °F -18.4 °F 70% 29.92 in 2.0 mi NE 19.6 mph - N/A Snow Light Snow
6:53 AM -11.9 °F -36.8 °F -18.0 °F 74% 29.93 in 1.8 mi NE 18.4 mph - N/A Snow Light Snow
7:21 AM -11.2 °F -35.2 °F -16.6 °F 77% 29.93 in 2.0 mi NE 17.3 mph - N/A Snow Light Snow
7:29 AM -11.2 °F -33.7 °F -16.6 °F 77% 29.93 in 1.5 mi NE 15.0 mph - N/A Snow Light Snow
7:53 AM -11.0 °F -33.5 °F -17.0 °F 75% 29.94 in 1.8 mi NE 15.0 mph - N/A Snow Light Snow
8:00 AM -11.2 °F -34.4 °F -16.6 °F 77% 29.93 in 2.0 mi NE 16.1 mph - N/A Snow Light Snow
8:11 AM -11.2 °F -35.2 °F -16.6 °F 77% 29.93 in 1.8 mi NE 17.3 mph - N/A Snow Light Snow
8:39 AM -11.2 °F -32.1 °F -16.6 °F 77% 29.93 in 2.0 mi NE 12.7 mph - N/A Snow Light Snow
8:53 AM -11.0 °F -33.5 °F -17.0 °F 75% 29.94 in 3.0 mi NE 15.0 mph - N/A   Overcast
9:53 AM -11.0 °F -30.9 °F -17.0 °F 75% 29.95 in 5.0 mi NE 11.5 mph - N/A   Overcast
10:53 AM -11.0 °F -32.7 °F -17.0 °F 75% 29.96 in 4.0 mi NE 13.8 mph - N/A   Overcast
11:53 AM -9.9 °F -32.8 °F -16.1 °F 74% 29.96 in 2.0 mi NE 16.1 mph - N/A   Haze
12:01 PM -9.4 °F -33.5 °F -16.6 °F 71% 29.95 in 1.2 mi NE 18.4 mph - N/A   Haze
12:53 PM -9.0 °F -32.4 °F -15.0 °F 75% 29.98 in 2.0 mi ENE 17.3 mph - N/A   Overcast
1:23 PM -9.4 °F -31.4 °F -14.8 °F 77% 29.97 in 1.5 mi NE 15.0 mph - N/A Snow Light Snow
2:28 PM -9.4 °F -32.8 °F -16.6 °F 71% 29.97 in 2.0 mi ENE 17.3 mph - N/A   Overcast
2:53 PM -9.0 °F -33.0 °F -16.1 °F 71% 29.97 in 1.8 mi NE 18.4 mph - N/A   Overcast
3:36 PM -9.4 °F -34.1 °F -16.6 °F 71% 29.97 in 1.8 mi NE 19.6 mph - N/A   Overcast
3:53 PM -9.9 °F -34.8 °F -16.1 °F 74% 29.97 in 1.5 mi NE 19.6 mph - N/A   Overcast
4:11 PM -9.4 °F -33.5 °F -16.6 °F 71% 29.97 in 2.0 mi ENE 18.4 mph - N/A   Haze
4:53 PM -9.9 °F -32.8 °F -16.1 °F 74% 29.98 in 2.0 mi NE 16.1 mph - N/A   Overcast
5:19 PM -9.4 °F -33.5 °F -16.6 °F 71% 29.97 in 1.8 mi ENE 18.4 mph 24.2 mph N/A   Haze
5:27 PM -9.4 °F -33.5 °F -16.6 °F 71% 29.97 in 2.0 mi NE 18.4 mph 24.2 mph N/A   Haze
5:38 PM -9.4 °F -34.1 °F -16.6 °F 71% 29.97 in 1.8 mi ENE 19.6 mph - N/A   Haze
5:46 PM -9.4 °F -34.7 °F -16.6 °F 71% 29.97 in 2.5 mi ENE 20.7 mph - N/A   Haze
5:53 PM -9.9 °F -34.2 °F -16.1 °F 74% 29.98 in 3.0 mi ENE 18.4 mph - N/A   Haze
6:05 PM -9.4 °F -33.5 °F -16.6 °F 71% 29.97 in 2.5 mi NE 18.4 mph - N/A   Haze
6:53 PM -9.9 °F -36.5 °F -16.1 °F 74% 29.98 in 2.5 mi ENE 23.0 mph - N/A   Haze
7:25 PM -9.4 °F -34.1 °F -14.8 °F 77% 29.98 in 3.0 mi ENE 19.6 mph - N/A   Haze
7:53 PM -9.0 °F -33.6 °F -15.0 °F 75% 29.99 in 3.0 mi ENE 19.6 mph - N/A   Haze
8:43 PM -9.4 °F -34.7 °F -16.6 °F 71% 29.98 in 2.5 mi ENE 20.7 mph - N/A   Haze
8:53 PM -9.0 °F -34.8 °F -16.1 °F 71% 29.99 in 2.5 mi ENE 21.9 mph - N/A   Haze
9:20 PM -9.4 °F -34.7 °F -14.8 °F 77% 29.99 in 3.0 mi ENE 20.7 mph - N/A   Haze
9:53 PM -9.0 °F -34.2 °F -15.0 °F 75% 29.99 in 2.5 mi ENE 20.7 mph - N/A   Haze
10:53 PM -9.0 °F -33.6 °F -15.0 °F 75% 29.99 in 2.5 mi ENE 19.6 mph - N/A   Haze
11:53 PM -8.0 °F -31.0 °F -14.1 °F 75% 30.00 in 2.5 mi ENE 17.3 mph - N/A   Haze